Location: Nelson
(41.2830°S, 173.2830°E)
Time: 01:29:53
(UTC+13:00)

Aureole 3 Rocket - Pass Details

Date: 24 January 2019
Orbit: 399 x 1742 km, 82.5° (Epoch: 19 February)

Event Time Altitude Azimuth Distance (km) Brightness Sun altitude
Rises 21:42:36 0° 186° (S) 2,445 6.8 -8.5°
Reaches altitude 10° 21:44:28 10° 184° (S) 1,639 5.8 -8.8°
Maximum altitude 21:47:56 76° 98° (E) 564 2.7 -9.3°
Drops below altitude 10° 21:52:24 10° 11° (N) 2,094 5.3 -10.0°
Enters shadow 21:53:50 - 10° (N) 2,696 5.9 -10.2°
